www.pogodaiklimat.ru

Погода и климат >> Архив погоды >> Кот-д'Ивуар >> Буаке


ПОГОДА в Буаке

  • Прогноз погоды в Буаке
  • Монитор погоды в Буаке

АРХИВ ПОГОДЫ в Буаке

Время (UTC), дата Ветер
(напр.,м/с)
 
Видим.   Явления Облачность Т
(С)
Тd
(С)
f
(%)
Тe
(С)
Тes
(С)
Комфортность P
(гПа)
Po
(гПа)
Тmin
(С)
Tmax
(С)
R
(мм)
R24
(мм)
S
(см)
06 9.01 Ю 1 8000 м мгла 3/0
[Ci sp]
+20.4 +5.2 37 +22 +22 комфорт 1010.9 967.8 +19.7
09 9.01 В 4 8000 м ясно +26.5 +0.2 18 +25 +29 комфорт 1012.4 970.0
12 9.01 Ю 2 8000 м мгла ясно +30.8 +2.9 17 +28 +46 жарко 1009.8 968.2
15 9.01 Ю 3 6000 м мгла ясно +33.5 +4.2 16 +31 +39 жарко 1006.5 965.4
18 9.01 С 1 6000 м мгла 5/0
[Ci sp]
+28.9 +6.9 25 +28 +28 жарко 1007.8 965.7 +34.0
21 9.01 штиль 0 7000 м мгла 4/0
[Ci sp]
+27.0 +4.7 24 +26 +26 жарко 1010.2 968.0
00 10.01 Ю 1 8000 м мгла 3/0
[Ci sp]
+25.0 +6.2 30 +25 +25 комфорт 1010.3 967.9
03 10.01 Ю 4 8000 м ясно +23.2 +20.5 85 +31 +31 очень
душно
1009.5 967.1
09 10.01 ЮЗ 2 7000 м ясно +24.4 +21.5 84 +31 +38 очень
душно
1012.3 970.0
12 10.01 ЮЗ 1 8000 м 6/6 400 м
[Cu med, cong]
+30.3 +19.7 53 +36 +44 очень
душно
1009.9 968.4
15 10.01 ЮЗ 2 8000 м 1/1 450 м
[Cu med, cong]
+32.8 +17.0 39 +36 +45 очень
душно
1006.8 965.7
18 10.01 ЮЗ 1 8000 м ясно +30.9 +17.6 45 +35 +35 очень
душно
1007.2 965.9 +34.0
21 10.01 Ю 2 8000 м 3/0
[Ci sp]
+27.1 +18.9 61 +32 +32 очень
душно
1010.2 968.3
00 11.01 Ю 1 8000 м ясно +26.8 +18.9 62 +32 +32 очень
душно
1010.1 968.1
06 11.01 ЮЗ 2 8000 м 4/0
[Ci sp]
+22.6 +22.3 98 +30 +30 очень
душно
1009.9 967.5 +22.6
09 11.01 ЮЗ 4 8000 м 8/8 300 м
[Sc]
+24.1 +22.9 93 +32 +33 очень
душно
1011.8 969.5
12 11.01 ЮЗ 1 8000 м 6/6 330 м
[Cu med, cong]
+29.1 +21.8 65 +37 +45 очень
душно
1009.6 968.0
15 11.01 ЮЗ 1 8000 м мгла 6/6 400 м
[Cu med, cong]
+32.8 +19.3 45 +38 +43 очень
душно
1007.6 965.8
18 11.01 ЮЗ 1 8000 м 8/3 400 м
[Cu med, cong Ci sp]
+36.0 +20.8 41 +43 +43 опасность
перегрева
1007.5 966.2 +33.1
21 11.01 Ю 2 8000 м 3/0
[Ci sp]
+27.8 +21.1 67 +35 +35 очень
душно
1010.4 968.6
03 12.01 Ю 1 8000 м ясно +25.6 +20.6 74 +32 +32 очень
душно
1008.8 966.8
06 12.01 ЮЗ 1 8000 м ясно +22.4 +20.7 90 +29 +29 очень
душно
1009.8 967.3 +22.3
09 12.01 ЮЗ 1 7000 м 9/3 300 м
[Sc Ci sp]
+25.8 +19.7 69 +31 +36 очень
душно
1011.0 968.9
12 12.01 В 2 8000 м мгла 6/0
[Ci sp]
+32.3 +7.9 22 +31 +46 жарко 1008.9 967.5
18 12.01 Ю 1 8000 м мгла 6/0
[Ac trans Ci sp]
+32.2 +9.7 25 +32 +32 жарко 1007.5 966.2 +35.4
21 12.01 Ю 1 8000 м мгла 3/0
[Ci sp]
+29.0 +11.1 33 +30 +30 жарко 1010.5 968.7
00 13.01 Ю 2 8000 м 3/0
[Ac trans]
+25.6 +18.3 64 +30 +30 душно 1010.7 968.5
03 13.01 ЮЗ 3 8000 м 3/0
[Ci sp]
+24.1 +21.8 87 +31 +31 очень
душно
1010.0 967.7
06 13.01 ЮЗ 2 8000 м 4/0
[Ci sp]
+22.9 +22.4 97 +31 +31 очень
душно
1010.7 968.4 +22.9
09 13.01 ЮЗ 5 10 км 5/4 300 м
[Cu med, cong Ci sp]
+25.4 +23.1 87 +34 +36 очень
душно
1012.9 970.7
12 13.01 З 1 10 км 3/1 400 м
[Sc Ci sp]
+31.1 +21.4 56 +39 +57 опасность
солнечного
удара
1010.6 969.3
15 13.01 Ю 2 8000 м мгла 3/0
[Ci sp]
+33.7 +15.7 34 +36 +45 очень
душно
1007.7 966.7
18 13.01 Ю 1 8000 м мгла 3/0
[Ci sp]
+31.6 +15.1 37 +34 +34 душно 1008.6 967.3 +34.4
21 13.01 Ю 1 8000 м мгла 3/0
[Ci sp]
+28.3 +15.6 46 +31 +31 душно 1012.0 970.1
00 14.01 ЮЗ 1 8000 м 3/0
[Ci sp]
+24.5 +17.7 66 +29 +29 душно 1012.3 969.9
03 14.01 Ю 2 8000 м ясно +23.8 +18.9 74 +29 +29 душно 1011.2 968.8
06 14.01 ЮЗ 2 7000 м 3/0
[Ci sp]
+21.8 +21.6 99 +28 +28 душно 1012.2 969.5 +21.7
09 14.01 ЮЗ 3 4000 м в посл. час туман 8/8 150 м
[Sc]
+23.0 +23.0 100 +32 +33 очень
душно
1014.8 972.2
12 14.01 Ю 1 10 км {туман} 6/6 400 м
[Cu med, cong]
+30.8 +21.0 56 +38 +46 очень
душно
1012.0 970.5
15 14.01 Ю 1 10 км 4/4 450 м
[Cu med, cong]
+33.9 +15.4 33 +36 +43 душно 1008.4 967.4
18 14.01 ЮВ 2 10 км 5/0
[Ci sp]
+31.9 +12.7 31 +33 +33 жарко 1009.2 967.8 +34.7
21 14.01 Ю 2 9000 м мгла 3/0
[Ci sp]
+27.5 +15.5 48 +30 +30 жарко 1012.0 970.0
00 15.01 Ю 1 10 км ясно +26.2 +16.2 54 +30 +30 душно 1011.4 969.2
03 15.01 Ю 2 10 км ясно +23.5 +20.8 85 +29 +29 душно 1010.2 967.8
06 15.01 ЮЗ 2 7000 м 4/0
[Ci sp]
+22.5 +22.5 100 +30 +30 очень
душно
1010.9 968.4 +22.3
09 15.01 ЮЗ 2 2000 м дымка {туман} 8/4 150 м
[Sc Ci sp]
+22.8 +22.8 100 +31 +35 очень
душно
1013.8 971.2
12 15.01 Ю 1 10 км {туман} 6/6 400 м
[Cu med, cong]
+30.2 +21.0 58 +38 +46 очень
душно
1011.5 970.0
15 15.01 С 2 10 км 6/6 400 м
[Cu med, cong]
+33.4 +17.1 38 +37 +41 очень
душно
1007.9 966.9
18 15.01 ЮВ 1 10 км 3/0
[Ci sp]
+31.7 +17.2 42 +35 +35 очень
душно
1008.5 967.2 +34.8
21 15.01 ЮВ 2 10 км 4/0
[Ci sp]
+28.1 +15.4 46 +31 +31 душно 1011.4 969.5
00 16.01 штиль 0 8000 м 1/0
[Ci sp]
+26.8 +16.7 54 +30 +30 душно 1011.4 969.3

 

Местоположение метеостанции Буаке (Кот-д'Ивуар): широта 7.74 долгота -5.08 высота над уровнем моря 376 м.

В архиве по умолчанию представлена погода в Буаке за последнюю неделю. Архивные данные за месяц целиком и за предыдущие месяцы, начиная с января 2011 года, Вы можете получить, выбрав интересующий диапазон дат из раскрывающегося списка и нажав кнопку "Ввод!".


*Определитесь, кто Вы:
робот инопланетянин человек

Внимание! Время в таблицах - всемирное. Для получения местного времени необходимо прибавить поправку, которая равна 0 ч.

Смотрите также архив погоды в соседних городах и на ближайших метеорологических станциях:

Погода в Ямусукро (Кот-д'Ивуар) (98 км)
Погода в Димбокро (Кот-д'Ивуар) (128 км)
Погода в Далоа (Кот-д'Ивуар) (181 км)
Погода в Корого (Кот-д'Ивуар) (196 км)
Погода в Ганьоа (Кот-д'Ивуар) (203 км)
Погода в Бондуку (Кот-д'Ивуар) (256 км)
Погода в Мане (Кот-д'Ивуар) (272 км)
Погода в Абиджане (Кот-д'Ивуар) (305 км)
Погода в Суняни (Гана) (307 км)
Погода в Боле (Гана) (320 км)

Пояснения к столбцам:

Ветер - указаны скорость ветра в м/с - средняя за 10 мин, порывы в срок и между сроками (в фигурных скобках) и направление, откуда дует ветер: С - северный, СВ - северо-восточный, В - восточный, ЮВ - юго-восточный, Ю - южный, ЮЗ - юго-западный, З - западный, СЗ - северо-западный.
Видимость - горизонтальная дальность видимости в метрах или километрах. При видимости от 1 до 10 км при отсутствии осадков обычно наблюдается дымка, при ухудшении видимости до 1 км и менее - туман. В сухую погоду видимость может ухудшаться дымом, пылью или мглою.
Явления - указаны атмосферные явления, наблюдавшиеся в срок или в последний час перед сроком; фигурными скобками обозначены явления, наблюдавшиеся между сроками (за 1-3 часа до срока); квадратными скобками обозначены град или гололедные отложения с указанием их диаметра в мм.
Облачность - указаны через наклонную черту общая и нижняя облачность в баллах и высота нижней границы облаков в метрах; квадратными скобками обозначены формы облаков: Ci - перистые, Cs - перисто-слоистые, Cc - перисто-кучевые, Ac - высококучевые, As - высокослоистые, Sc - слоисто-кучевые, Ns - слоисто-дождевые, Cu - кучевые, Cb - кучево-дождевые. Подробнее классификацию облаков см. в Атласе облаков (PDF).
T - Температура воздуха - температура, измеренная на высоте 2 м над землей.
Td - Температура точки росы - температура, при понижении до которой содержащийся в воздухе водяной пар достигнет насыщения.
f - Относительная влажность воздуха - влажноcть воздуха, измеренная на высоте 2 м над землей.
Te - Эффективная температура - температура, которую ощущает одетый по сезону человек в тени. Характеристика душности погоды. При расчете учитывается влияние влажности воздуха и скорости ветра на теплоощущения человека.
Tes - Эффективная температура на солнце - температура, которую ощущает человек, с поправкой на солнечный нагрев. Характеристика знойности погоды. Зависит от высоты солнца над горизонтом, облачности и скорости ветра. Ночью, в пасмурную погоду, а также при ветре 12 м/с и более поправка равна нулю.
P - Атмосферное давление - приведенное к уровню моря атмосферное давление.
Po - Атмосферное давление - измеренное на уровне метеостанции атмосферное давление.
Tmin - Минимальная температура - минимум температуры воздуха на высоте 2 м над землей.
Tmax - Максимальная температура - максимум температуры воздуха на высоте 2 м над землей.
R - Количество осадков - Количество выпавших осадков за период времени, мм. При наведении курсора мыши на число - период времени, за который выпало указанное количество осадков.
R24 - Количество осадков - Количество выпавших осадков за 24 часа, мм.
S - Снежный покров - Высота снежного покрова, см. При наведении курсора мыши на число - состояние снежного покрова и степень покрытия местности в баллах.